C/2007 W1 (Boattini)  [Post-T orbit]
Epoch 2008 June 23.0 TT = JDT 2454640.5  
T 2008 June 24.88704 TT                                 Nakano
q   0.8496833            (2000.0)            P               Q
z  -0.0001145      Peri.  306.55435     +0.19726944     +0.97756214
 +/-0.0000257      Node   334.52311     -0.83562788     +0.12826621
e   1.0000973      Incl.    9.88877     -0.51265077     +0.16709292
From 733 observations 2008 June 30-Nov. 7, mean residual 0".63.
   Nongravitational parameters A1 = +5.75 +/- 0.11, A2 = -0.7050 +/- 0.1496.
   (1/a)fut.= +0.000545 (+/-0.000026), Q= 6.
   The comet has passed 1.22 AU from Saturn on 2006 Apr. 27 and passed
   0.21 AU from the Earth on 2008 June 12 UT.
Residuals in seconds of arc 
2008/                     080807 B49  0.5+  0.7+    080830 B37  0.0   0.2+  
080630 474  1.5+  1.2+    080807 J51  0.1-  0.4-    080830 704  1.5+  0.8+  
080630 474  1.5+  0.9+    080807 B49  0.1-  0.1+    080830 704 (1.4-  4.1+) 
080630 474  1.5+  1.2+    080807 B49  0.7+  0.4+    080830 704 (3.0-  0.8+) 
080704 349  0.1-  0.4+    080807 B49  0.5+  0.1+    080830 704  1.8-  0.4+  
080704 349  0.2+  0.7+    080807 B49  0.2+  0.4+    080830 B40  0.1-  0.6+  
080704 349  0.1-  0.7+    080807 D81 (2.7+  0.4-)   080830 B59  0.2-  0.4+  
080704 349  0.3+  0.0     080807 D81  1.8-  0.8-    080830 B59  0.4-  0.1-  
080704 349  0.1+  0.2+    080807 D81  0.4+  0.6-    080830 B59  1.3+  0.1-  
080705 J51  0.5+  0.2+    080807 D81  1.1+  0.3-    080830 B59  0.1-  0.3+  
080705 J51  0.1-  0.1+    080808 B42  0.8-  0.9+    080830 B66  0.5-  0.6+  
080705 J51  0.7+  0.3-    080808 B42  0.1-  1.1+    080831 A97  0.9-  0.5-  
080705 349  0.4+  1.3+    080809 B42  0.7-  0.9+    080831 A97  1.2-  0.9-  
080705 349  0.3+  1.2+    080809 B42  0.5-  0.5+    080831 A97  1.2-  1.6-  
080705 349  0.3+  1.0+    080809 B42  0.2+  1.2+    080831 B66  0.5+  0.1-  
080707 372  0.3-  0.0     080809 B42  0.1+  0.3+    080831 510  0.0   0.9+  
080709 J40  0.6-  0.6-    080809 945  0.6-  1.0+    080831 510  0.9+  0.9-  
080709 J40  1.3-  0.3-    080809 945  0.1+  1.3+    080831 510  0.7+  0.3-  
080709 J40  0.3-  1.2+    080809 945  0.4+  0.6+    080831 B40  1.6-  0.2+  
080709 J40  0.0   1.0+    080809 945  0.2-  1.0+    080831 372  0.7+  0.1+  
080709 J51  0.5-  0.8-    080809 945  0.0   0.6+    080831 B40 (2.1-  0.1+) 
080709 J51  0.2+  0.9-    080809 J38  0.4-  0.2+    080901 349  0.1-  0.3-  
080709 J51  0.1-  0.4-    080809 J38  0.2-  0.4+    080901 349  0.1+  0.1-  
080710 J51  0.1+  1.0-    080809 J38  0.3-  0.3+    080902 355  0.4-  0.2+  
080710 J51  0.1-  0.0     080809 H45  1.0+  0.6-    080902 355  0.3-  0.5+  
080710 J51  0.5-  0.7-    080809 H45  0.3+  0.1-    080902 355  0.0   0.3-  
080711 J45  0.5+  0.3-    080809 H45  0.6+  0.1-    080902 355  0.6-  0.3-  
080711 J47  0.4-  0.6+    080809 H45  0.9+  0.3-    080902 235  1.2-  0.2-  
080711 J47  0.1+  0.1-    080809 H45  0.9+  0.0     080902 118  1.5+  0.3+  
080711 J45  0.7+  0.4-    080809 H45  0.8+  0.3-    080902 118  0.4-  0.2+  
080711 J47  0.1+  0.1-    080809 H47  0.1+  0.1+    080903 J53  0.0   0.3-  
080711 J47  0.2-  0.5+    080809 H47  0.6+  0.2-    080903 J53  0.3+  0.1-  
080711 349  0.7-  0.4-    080809 H06  0.1-  1.4+    080903 J53  0.3+  0.2-  
080711 349  0.4-  0.6-    080810 A97  0.4-  0.1-    080903 152  1.1-  0.3-  
080711 349  0.6-  0.2-    080810 A97  0.1-  0.5-    080903 152  0.1-  0.2-  
080711 367  0.3+  1.0+    080810 A97  0.5-  0.5-    080903 152 (4.1-  0.3-) 
080711 367  0.7+  0.4+    080810 A97  0.0   0.0     080903 152  0.7-  0.7-  
080711 367  0.3+  0.7+    080810 106  0.1-  0.4-    080903 152  0.3+  0.3-  
080712 J70  0.3-  0.2+    080810 106  0.6+  0.6-    080903 152  0.7-  0.6-  
080712 J70  1.7-  0.4+    080810 106  0.4-  0.4-    080903 152  0.8-  0.5-  
080712 J70  1.4-  0.2-    080810 106  0.7+  0.1-    080903 152  0.7-  0.7-  
080712 J70  1.2-  0.2+    080810 J38  0.5-  0.5+    080903 B59  0.0   0.0   
080712 J70  0.5-  0.9+    080810 J38  0.4-  0.3+    080903 152  0.4+  0.1-  
080712 J70  0.5-  0.0     080810 J38  0.2+  0.5+    080903 152  0.8-  0.6-  
080712 J70  1.2-  0.0     080810 B51  0.3+  0.5+    080904 585  0.2+  0.3-  
080712 J70  0.5-  0.1+    080810 B51  0.1+  1.0+    080904 585  1.0+  0.1-  
080712 J70  0.8-  0.6-    080810 H06  0.8-  0.3-    080904 585  1.2+  0.1+  
080712 J70  0.5-  0.3+    080810 372  0.5+  0.6+    080904 585  0.2+  0.1+  
080712 J70  0.7-  0.7+    080810 372  0.0   0.4+    080904 H06  0.7-  0.1-  
080712 J47  0.0   1.0-    080810 372  0.5+  0.6+    080904 H06  0.6-  0.8-  
080712 J47  0.0   1.0-    080810 372  0.2+  0.5+    080905 704  0.7+  1.5-  
080712 J47  0.6-  0.4-    080811 J47  0.2+  0.4+    080905 704  1.6-  0.5-  
080712 349  0.5-  0.5-    080811 J47  0.1+  0.3+    080905 704 (2.0-  1.2-) 
080712 349  0.5-  0.4-    080811 J47  0.1-  0.4+    080905 704 (2.0-  0.3-) 
080712 900  0.3+  0.0     080811 J47  0.1+  0.6+    080905 372  0.8+  0.5+  
080712 D78  0.7-  0.7-    080811 372  1.4+  0.1-    080905 J40  0.3+  0.7-  
080712 D78  0.4-  0.3-    080811 372  1.5+  1.3+    080905 J40  0.4-  0.0   
080712 D78 (0.2+  2.1-)   080812 585  0.9+  0.4+    080905 J40  1.7-  0.3-  
080712 900  0.4+  0.1-    080812 585  0.6+  0.3+    080906 B40  0.7-  1.2-  
080712 D78  0.4+  1.6-    080812 585  0.6+  0.2+    080906 B40  0.5-  0.3-  
080713 J47  0.2+  0.9-    080812 585  0.5-  0.5-    080906 B40  0.3+  0.3+  
080713 J47  0.0   0.8-    080812 585  0.7+  0.3-    080906 442  0.0   1.3-  
080713 J47  0.3+  0.7-    080812 585  1.2+  0.4+    080906 H45  0.7+  0.2-  
080713 J47  0.5-  0.1-    080812 585  0.3+  0.2-    080906 H45  0.9+  0.3-  
080714 J38  0.0   0.3+    080812 585  1.4+  0.7+    080906 H45  0.5+  0.3-  
080714 J38  0.5-  0.5+    080812 585  0.4+  0.4+    080906 H45  0.5+  0.3-  
080714 J38  0.3-  0.3+    080812 585  0.2+  0.5+    080906 H45  0.2+  0.4-  
080715 J51  0.0   0.9-    080812 585  0.3-  0.6+    080906 H45  0.1+  0.4-  
080715 J51  0.1+  0.8-    080812 585  0.5+  0.6+    080906 B40  0.2-  0.6-  
080715 J51  0.7+  1.0-    080812 J51  0.3-  0.6-    080906 A71  0.5-  1.0-  
080715 J47  0.6+  0.0     080812 J51  0.2-  0.6-    080906 A71  0.9-  0.9-  
080715 J47  0.0   0.5-    080812 J51  0.2+  0.3-    080906 A71  1.0-  0.3-  
080715 J47  0.3+  0.3-    080812 367  1.3-  1.0-    080907 941  0.4+  0.2-  
080715 372  0.1-  1.1+    080812 367  0.7-  1.4-    080907 941  0.4+  0.1-  
080715 372  0.4+  0.9+    080812 367  0.7-  0.4-    080907 941  0.7+  0.2-  
080715 372  0.4+  0.3+    080812 152  0.7-  1.4+    080907 H47  0.9-  0.6+  
080716 204  0.1+  0.1+    080812 152  0.1-  0.2+    080907 H47  0.4-  0.3-  
080716 204  0.4+  0.2-    080812 152  0.5-  0.3+    080907 H47  0.4-  0.8-  
080716 204  0.7+  0.1+    080812 152  0.5-  0.2+    080907 372  0.1-  0.7+  
080717 106  0.3-  0.1-    080812 152  0.1-  0.4+    080907 945  1.3-  0.3+  
080717 106  0.3+  0.5-    080812 152  0.2+  0.0     080907 945 (4.8-  2.1-) 
080717 A97  1.2-  0.3-    080812 152  0.9-  0.0     080907 945 (2.3-  0.9-) 
080717 106  0.4+  0.7-    080812 152  1.1-  0.4+    080907 945  1.2-  0.0   
080717 A97  0.4-  0.0     080812 152  0.2-  0.1+    080908 352 (0.3+  2.2-) 
080717 A97  0.4-  0.2-    080812 152  1.0-  0.1+    080908 352  0.6-  0.3-  
080717 106  0.6-  0.7+    080812 152  1.1-  0.3+    080908 900  0.3-  0.5-  
080717 A97  0.6-  1.1-    080812 152  1.1-  0.7+    080908 900  0.4-  0.4-  
080717 106  0.1+  0.4-    080812 152  0.2-  0.2+    080908 355  0.4-  1.3-  
080717 A97  0.0   1.0-    080812 152  0.1-  0.4+    080908 355  1.0-  1.6-  
080719 J51  0.3-  0.5-    080812 152  0.6-  0.4+    080908 355  0.7-  0.9-  
080719 J51  0.2-  0.5-    080812 152  0.7-  0.0     080908 355  0.2-  1.2-  
080719 J51  0.1+  0.4-    080813 900  0.3+  0.3-    080908 372  0.2-  0.9+  
080719 D78  0.1+  0.3-    080813 900  0.6+  0.4-    080908 071 (2.2+  0.9+) 
080719 D78  0.4-  0.7-    080814 A77  0.2-  0.3+    080908 071  1.7+  1.3-  
080719 D78  0.1-  0.5-    080814 A77  0.3-  0.2+    080908 071 (2.4+  1.1-) 
080719 D78  0.2+  0.1-    080814 A77  0.2-  0.5+    080908 071  0.6+  0.0   
080719 D78  0.6+  0.7-    080814 372  1.1+  0.6+    080908 071  1.0+  0.3+  
080720 A17  0.5+  0.4-    080814 372  1.2+  0.8+    080908 071  0.7+  0.1+  
080720 A17  0.4-  0.1-    080814 152  1.1-  0.4+    080909 215  0.3-  0.6-  
080720 A17  0.4+  0.5-    080814 152  0.5-  0.3+    080909 215  0.1-  0.2-  
080720 213  1.0-  0.4+    080814 152  1.1-  0.2+    080909 215  0.0   0.2-  
080720 213  0.9-  0.3+    080814 152  0.2-  0.2+    080909 D88  0.7-  0.7-  
080720 213  0.8-  0.1+    080814 152  0.5-  0.3+    080909 D88  1.4-  0.1-  
080720 J47  0.9+  0.4+    080814 152  0.9-  0.7+    080909 D88  0.8-  0.4-  
080720 J47  0.4+  0.2+    080814 152 (2.0-  0.9+)   080911 J47  0.9-  0.3+  
080720 J47  0.5-  0.1-    080814 152  0.3-  0.4+    080911 J47  0.6-  0.1+  
080720 J47  1.7-  0.2-    080815 152  0.9-  0.7+    080911 J47  0.7-  0.1-  
080720 844  0.4-  1.4-    080815 152  0.6-  0.5+    080911 J47  0.6-  0.1-  
080720 844  0.4+  0.5-    080815 152  0.2-  0.4+    080911 J47  0.2-  0.0   
080720 844  0.3+  0.8-    080815 152  0.1+  0.2+    080911 372 (3.3-  1.2-) 
080720 844  0.4-  1.3-    080815 349  0.0   0.1+    080911 900  0.5-  1.1-  
080720 844  1.0+  0.5-    080815 349  0.4-  0.1-    080911 900  0.3-  0.9-  
080720 372  0.4+  0.2+    080816 145  1.0+  0.3+    080913 118  0.5-  0.8-  
080720 372  0.2+  0.0     080816 145  0.9+  0.4+    080913 118  0.4+  0.3-  
080720 372  0.1+  0.1-    080816 145  1.4+  0.4+    080913 442  1.9-  0.1-  
080720 372  0.1-  0.5+    080816 145  1.3+  0.4+    080913 442 (2.2-  0.6+) 
080720 372  0.1-  0.1-    080816 145  1.1+  0.5+    080913 B49  0.3+  0.6-  
080722 945  0.5-  1.1+    080816 145  0.8+  0.1+    080913 510  0.6+  1.0+  
080722 945  0.2+  0.4-    080816 145  1.0+  0.5+    080913 510  0.5+  1.3+  
080722 945  1.1-  1.0+    080816 145  1.0+  0.3+    080913 510  0.5-  0.1+  
080722 945  1.0-  1.6+    080816 145  1.0+  0.2+    080914 J51  0.1+  0.0   
080722 945  0.6+  0.5-    080816 145  1.3+  0.0     080914 J51  0.4-  0.9-  
080722 939  0.1-  0.1-    080816 145  0.8+  0.4+    080914 J51  0.1+  0.7-  
080722 939  0.2-  0.3-    080816 J47 (0.2+  2.4+)   080914 J47  0.1-  0.1-  
080722 939  0.3-  0.7-    080816 J47  0.1+  0.5+    080914 J47  0.1-  0.1-  
080722 J47  0.4-  0.4-    080816 J47 (2.2-  0.9+)   080914 J47  0.5-  0.9+  
080722 J47  0.0   0.2-    080817 J51  0.2+  0.3+    080915 J40  0.0   0.5+  
080722 J47  0.4-  0.4-    080817 J51  0.0   0.3+    080915 J40  1.6-  0.3-  
080722 J47  0.5+  0.2-    080817 J51  0.9+  0.3+    080915 J40  1.1-  0.1-  
080722 H45  0.4+  0.3-    080818 118  0.6+  0.2-    080915 J40  1.1-  0.3+  
080722 H45  0.4+  0.2-    080818 118  0.1+  0.1-    080915 B40  1.8-  0.5-  
080722 H45  0.4+  0.3-    080818 945  1.7-  0.5+    080921 J47  0.7+  0.7-  
080722 H45  0.4+  0.3-    080818 945 (2.7-  0.0 )   080921 J47  0.1-  0.5-  
080722 H45  0.5+  0.6-    080818 945  1.0-  0.5-    080921 J47  0.5-  0.4-  
080722 H45  0.4+  0.2-    080818 945  0.9+  1.1+    080921 J47  1.2-  1.8-  
080723 B49  0.1-  0.5+    080818 945  1.0+  0.6+    080921 J40 (1.5+  3.3-) 
080723 B49  0.1-  0.2+    080818 J47  1.5-  1.0+    080921 J47  0.3-  0.6-  
080723 B49  0.5-  0.2-    080818 J47  0.6-  0.8+    080921 J47  0.1-  0.2-  
080723 B49  0.3+  0.3-    080818 J47  1.2-  0.6+    080921 J47  0.2-  0.4-  
080723 B49  0.5+  0.0     080818 J47  0.4-  0.1-    080922 372  0.3+  0.4+  
080723 372  0.4+  0.0     080818 152  0.9-  0.9+    080922 372  0.6+  0.5+  
080725 204  0.3+  0.1-    080818 152  0.2+  0.4+    080922 372  0.0   0.4+  
080725 204  0.4+  0.1-    080818 152  0.2-  0.3+    080922 900  0.7-  1.0-  
080725 900  0.4-  1.7-    080818 152 (2.0-  0.5+)   080922 352  1.2-  0.9-  
080725 900  1.2-  1.7-    080818 152  0.4+  0.6-    080922 900  0.2-  0.1+  
080727 213  0.9-  0.1+    080818 152  0.3+  0.5+    080922 352  1.0-  0.4-  
080727 213  0.5-  0.0     080819 118  0.6+  0.0     080922 352  1.7-  1.5-  
080727 232  0.5+  0.6-    080819 118  0.5+  0.2-    080922 349  0.2-  0.6-  
080727 213  0.1-  0.2+    080819 J51  0.5-  0.0     080922 349  0.6-  0.3-  
080727 232  1.2-  0.0     080819 118  0.0   0.4-    080922 B42  0.9-  0.6+  
080727 232  1.8-  0.6-    080819 J51  0.5-  0.1+    080924 B26  1.1-  0.5-  
080727 349  0.4-  0.3-    080819 118  0.6+  0.0     080925 B26  0.5+  0.1-  
080727 349  0.3-  0.3-    080819 J51 (2.1-  0.3+)   080925 B26  0.2-  0.2+  
080727 349  0.4-  0.1-    080819 152  0.6-  0.9+    080925 B26  0.9+  0.6-  
080727 372  0.1+  0.1-    080819 152  1.9+  0.8-    080927 A06  0.5-  1.0-  
080728 H45  0.4+  0.4-    080819 152  0.5+  0.2-    080927 A06  0.3+  0.1-  
080728 H45  0.7+  0.4-    080820 A02  0.8-  0.1+    080927 A06  0.3+  0.5-  
080728 H45  0.6+  0.0     080820 A02  0.2-  0.7-    080927 J51  0.7+  1.4+  
080728 H45  0.4+  0.2-    080820 A02  1.1-  0.4-    080927 J51  0.6+  1.5+  
080728 H45  0.2+  0.5-    080821 J38  1.2+  0.8-    080928 A18  0.4+  0.4+  
080728 H45  0.5+  0.2-    080821 J38 (2.5+  0.9-)   080928 J52  0.5+  0.1+  
080729 J38  0.2-  0.1+    080821 945  0.0   1.0-    080928 B37  0.2+  1.2+  
080729 J38  0.0   0.3+    080821 945  0.2+  0.4+    080928 B37  0.6+  0.3-  
080729 J38  0.1+  0.3+    080821 945  0.2+  0.1-    080928 B37  0.7-  0.5+  
080729 J47  0.7-  0.4-    080821 945  0.7+  1.2+    080928 118  0.6+  1.3+  
080729 J47  0.3-  0.1+    080821 235  1.1-  1.2-    080928 B37  0.6-  0.7+  
080729 J47  0.4-  0.0     080823 J38 (3.4+  2.3-)   080928 118  1.4+  0.0   
080729 J47  0.3+  0.2+    080823 J38 (4.5+  1.5-)   080928 118  0.8+  0.0   
080729 J47  0.3+  0.5+    080823 J38 (4.1+  1.1-)   080928 A97 (4.3-  0.6-) 
080730 945 (2.0-  0.9+)   080823 H06  1.7-  1.5+    080928 A97 (6.1-  1.2-) 
080730 945  0.0   1.0+    080823 204  1.7+  0.2-    080928 A97 (6.5-  0.6-) 
080730 945  0.3+  0.1+    080823 204  0.3+  0.6-    080928 B37  1.3-  0.8+  
080730 945  0.5+  0.1+    080823 204  1.0+  0.3-    080928 B37  0.6+  0.9+  
080730 945  0.3+  0.4+    080824 J52  0.0   0.5-    080928 J47  0.9+  0.2+  
080730 J47  0.2+  0.0     080824 J52  0.0   0.2-    080928 B37 (2.3-  0.2-) 
080730 J47  0.1-  0.1-    080824 J52  0.1+  0.4-    080928 J47  0.5+  0.1-  
080730 J47  0.2-  0.4+    080825 J47  0.2+  0.5+    080928 J47  0.7-  0.4+  
080730 J47  0.1+  0.3+    080825 J47  0.9+  1.1+    080928 J47  0.2-  0.5-  
080730 372  1.5+  0.3+    080825 J47  0.2+  0.0     080929 B37  0.8-  0.1+  
080731 939  1.1-  0.2+    080825 J47  0.5+  0.5+    080929 B37  1.0-  0.5+  
080731 939  0.6-  0.2+    080825 213  0.8+  0.5+    080929 H45  0.3+  0.2-  
080731 939  0.2-  0.1+    080825 213  0.9+  0.6+    080929 H45  0.0   0.8-  
080731 H06  0.1+  0.2+    080825 213  0.5+  0.6+    080929 H45  0.1-  0.2-  
080731 H06  0.9-  0.8-    080826 945  0.2-  1.1+    080929 H45  0.6-  0.1+  
080801 H45  0.4+  0.1-    080826 945  0.1+  0.9+    080929 H45  1.1+  0.3+  
080801 H45  0.1+  0.4-    080826 945  0.5-  1.4+    080929 H45  0.3+  0.4+  
080801 H45  0.4+  0.3-    080826 945  0.5+  0.5+    080929 H06  0.7+  0.2-  
080801 H45  0.6+  0.4-    080826 945  0.5+  0.5+    080929 H06 (1.9-  3.6-) 
080801 H45  0.6+  0.3-    080826 945  0.1-  0.7+    080929 693  0.4+  0.8+  
080801 H45  0.9+  0.1-    080826 J51  0.2+  0.3-    080929 693  0.4+  0.8+  
080802 945  0.5+  1.4+    080826 J51  0.0   0.2-    080929 693  0.5+  0.8+  
080802 945  1.2-  0.7+    080826 J51  0.1+  0.4-    080929 693  0.3+  0.9+  
080802 945  0.5-  0.5+    080826 H45  0.7+  0.3+    080929 629  0.7-  0.2-  
080802 945  0.0   0.5-    080826 H45  0.8+  0.2+    080929 629 (0.1+  2.2+) 
080802 945  0.6-  0.4+    080826 H45  0.5+  0.1+    080929 B26  0.7-  0.6+  
080802 J96  0.2+  0.7-    080826 H45  0.7+  0.2+    080929 B26  0.1-  0.5+  
080802 J96  0.4+  0.5-    080826 H45  0.7+  0.0     080929 B26  0.0   0.5+  
080802 J96  0.4+  0.3-    080826 H45  0.6+  0.1+    080930 A77  0.4+  0.6-  
080802 J47  0.8-  0.5-    080827 B40  0.3-  0.2+    080930 A77  0.2-  0.3-  
080802 J47  0.9-  0.3+    080827 H45  0.7+  0.2+    080930 A77  0.4-  0.7+  
080802 J47  0.9-  0.3+    080827 H45  0.8+  0.0     081001 G96 (2.3-  2.3-) 
080802 J47  0.1-  0.4+    080827 H45  0.8+  0.2+    081001 G96  0.9-  1.0-  
080802 J47  0.1-  0.4+    080827 H45  0.6+  0.1+    081001 G96 (1.7-  2.2-) 
080802 J47  0.9-  0.6-    080827 H45  0.7+  0.1+    081001 G96  1.2-  1.4-  
080802 J47  0.7-  0.0     080827 H45  0.7+  0.2+    081002 B37  0.1+  0.9+  
080803 B20  0.7-  0.9+    080827 B66  0.5+  0.2+    081002 B37  0.1-  0.8-  
080803 B20  0.7-  0.0     080827 B66  0.6+  0.2+    081002 B37  1.4+  0.5+  
080803 B20  1.5-  0.0     080827 B09  0.3+  0.2-    081002 900  0.0   0.1+  
080803 A02  0.3-  0.2-    080827 A97  1.2-  0.7-    081002 900  0.1+  0.0   
080803 A02  0.3+  0.2-    080827 B09  0.2+  0.3-    081003 704  0.6-  1.1+  
080803 A02  0.1+  0.1-    080827 A97 (2.2+  2.2-)   081003 704  0.7-  0.6-  
080803 J47  0.9-  0.4+    080827 A97  0.8-  0.5-    081003 704  0.9+  0.5-  
080803 J47  0.2-  0.4+    080827 A97  0.8-  0.1-    081003 704  0.2-  0.4-  
080803 J47  1.0-  0.4+    080827 A97  1.3-  0.5-    081003 704  0.0   0.2+  
080803 J47  0.4-  0.6+    080827 B66  0.8+  0.4+    081004 349  0.3-  0.7+  
080803 J47  0.1-  0.5+    080828 B66  0.1-  0.4+    081004 349  0.4+  1.6+  
080803 H45  0.7+  0.2-    080828 215  0.5+  0.1-    081004 349  0.0   1.4+  
080803 H45  0.9+  0.4-    080828 215  0.4+  0.1-    081004 235  0.0   0.5+  
080803 H45  0.6+  0.1-    080828 215  0.1+  0.4-    081005 A77  0.6-  0.0   
080803 H45  0.5+  0.4-    080828 B66  0.6+  0.3+    081005 A77  0.1+  0.1+  
080803 H45  0.9+  0.2-    080828 J51  0.1+  0.2+    081005 J24  1.0-  0.1-  
080803 H45  0.9+  0.1-    080828 J51  0.3+  0.2-    081005 J24  1.0-  0.4+  
080803 215  0.4+  0.1-    080828 J51  0.4+  0.4-    081005 J24  0.8-  1.1-  
080803 215  0.4+  0.1-    080828 H45  0.8+  0.3+    081005 B49  1.1+  0.1-  
080803 215  0.2+  0.4-    080828 H45  0.1+  0.2-    081006 204  0.3+  0.1+  
080804 J47  0.3+  0.1-    080828 H45  0.2+  0.2-    081006 204  0.2+  0.2+  
080804 J47  0.0   0.1+    080828 H45  0.7+  0.1+    081006 B26  1.9+  0.7+  
080804 J47  0.2+  0.0     080828 H45  0.6+  0.1-    081008 372  0.4-  0.2-  
080804 J40  0.5+  0.4+    080828 H45  0.4+  0.1+    081008 900  0.3+  0.5+  
080804 J47  0.0   0.3+    080828 114  0.1-  0.2-    081008 900  0.7+  0.5-  
080804 J47  0.2-  0.2+    080828 114  0.4-  0.1-    081024 B30 (2.2-  2.0+) 
080804 J40  0.2+  0.6+    080829 H45  1.4+  0.2-    081024 B30 (1.1+  4.8+) 
080804 J40  0.2-  0.4+    080829 H45  0.8+  0.1+    081024 B30 (4.3+  7.4+) 
080804 J51  0.5+  0.3-    080829 H45  0.7+  0.0     081025 A77 (3.1-  3.8-) 
080804 J51  0.5+  0.3-    080829 H45  0.7+  0.5+    081025 A77  0.4-  1.8-  
080804 J51  0.3+  0.3-    080829 H45  0.8+  0.1+    081025 A77 (3.1+  0.5+) 
080804 704  0.9+  1.3-    080829 H45  0.7+  0.3+    081025 A77  0.1+  0.5-  
080804 704  0.8-  0.1-    080830 939  0.3+  0.4-    081025 A77  0.3+  1.3+  
080804 704  0.7-  0.2-    080830 232  0.1+  0.0     081025 A77  0.0   0.7-  
080804 704  0.0   0.1+    080830 939  0.1+  0.0     081026 A77  0.5+  0.4+  
080805 H45  0.7+  0.2-    080830 232  0.5+  0.5+    081026 A77  0.4-  0.4+  
080805 H45  0.7+  0.0     080830 473  0.1-  0.6+    081026 A77  0.5+  0.8+  
080805 H45  0.7+  0.3-    080830 232  0.2-  0.6-    081026 585 (3.8-  0.1-) 
080805 H45  0.6+  0.3-    080830 939  0.3-  0.3+    081026 585  1.7-  0.5-  
080805 H45  0.8+  0.4-    080830 232  1.0+  0.2+    081026 585 (3.3-  0.4+) 
080805 H45  0.7+  0.3-    080830 232  0.2+  0.4-    081026 585  1.5-  1.6-  
080806 J51  0.4+  0.7-    080830 473  0.5-  0.0     081027 G96  1.3+  0.0   
080806 J51  0.2+  0.6-    080830 232  0.3+  0.5-    081027 G96  0.8+  0.7+  
080806 J51  0.3+  0.3-    080830 232  0.2-  0.1+    081027 G96  0.7+  0.3+  
080806 629  0.4+  0.3-    080830 213  0.4+  0.3+    081027 G96  0.7+  0.0   
080807 629  0.3+  0.1-    080830 473  0.2-  0.0     081101 349  1.2-  0.8-  
080807 629  0.5+  0.3-    080830 213  0.7+  0.2+    081101 349  0.0   0.4+  
080807 510  0.2+  0.5+    080830 213  0.4+  0.2+    081106 G96  0.8+  0.7+  
080807 510  0.3+  0.1+    080830 473  0.2-  0.0     081106 G96  0.9+  0.1+  
080807 510  0.2+  0.4+    080830 J47  1.4-  0.5-    081106 G96  0.6+  1.5+  
080807 232  0.9-  0.4-    080830 J47  1.2+  1.0-    081106 G96  1.3+  0.7+  
080807 232  0.8-  0.2-    080830 J47  0.8+  0.2-    081107 204  1.6+  1.1-  
080807 232  0.3-  1.5+    080830 J47  0.5+  0.2+    081124 A77 (3.3+  0.0 ) 
080807 J51  0.3-  0.8-    080830 B37  0.1+  0.3+    081124 A77(10.9- 15.8+) 
080807 J51  0.5+  0.2-    080830 B37  0.4+  0.4+                            

